Tracking 28081 objects as of 26-Sep-2023
HD Live streaming from Space Station
objects crossing your sky now

STARLINK-5550

Track STARLINK-5550 now!
10-day predictions
STARLINK-5550 is classified as:


NORAD ID: 56361
Int'l Code: 2023-058AW
Perigee: 567.0 km
Apogee: 573.2 km
Inclination: 97.7 °
Period: 95.9 minutes
Semi major axis: 6941 km
RCS: Unknown
Launch date: April 27, 2023
Source: United States (US)
Launch site: AIR FORCE WESTERN TEST RANGE (AFWTR)
Your satellite tracking list
Your tracking list is empty




NASA's NSSDC Master Catalog

Two Line Element Set (TLE):
1 56361U 23058AW  23268.87128845  .00000501  00000-0  43570-4 0  9992
2 56361  97.6540 268.5942 0004497  50.4534 309.7087 15.01269485 23735
Source of the keplerian elements: AFSPC